DW8295 Weather Reports


Display with metric or nautical units.
time (UTC)temp
F
wind
direction
speed
MPH
gust
MPH
rain 1hr
in
rain 24hr
in
rain mn
in
humidity
%
barometer
mb
20260510144533 55 234 3.0 9.0 0.00 0.35 0.06 91 1012.1
20260510144031 55 155 4.0 9.0 0.00 0.35 0.06 91 1012.2
20260510143531 55 168 4.0 9.0 0.00 0.35 0.06 92 1012.2
20260510143027 54 140 4.0 9.0 0.00 0.35 0.06 92 1012.2
20260510142525 54 145 3.0 9.0 0.00 0.35 0.06 92 1012.3
20260510142025 54 182 2.0 7.0 0.00 0.35 0.06 93 1012.3
20260510141746 53 205 3.0 8.0 0.00 0.35 0.06 93 1012.2
20260510141025 53 164 4.0 9.0 0.00 0.35 0.06 94 1012.2
20260510140525 53 201 4.0 10.0 0.00 0.35 0.06 94 1012.0
20260510140259 53 167 4.0 10.0 0.00 0.35 0.06 94 1011.9
20260510135741 52 191 3.0 9.0 0.00 0.35 0.06 94 1012.1
20260510135613 52 181 3.0 9.0 0.00 0.35 0.06 94 1012.0
20260510134524 52 192 3.0 8.0 0.00 0.35 0.06 94 1012.1
20260510134024 52 170 2.0 8.0 0.00 0.35 0.06 94 1012.1
20260510133523 52 192 2.0 6.0 0.00 0.35 0.06 94 1012.1
20260510133021 52 191 2.0 6.0 0.00 0.35 0.06 95 1012.2
20260510132520 53 176 1.0 6.0 0.01 0.35 0.06 95 1012.2
20260510132236 53 204 1.0 5.0 0.01 0.35 0.06 95 1012.3
20260510131509 52 218 2.0 7.0 0.01 0.35 0.06 95 1012.2
20260510131003 52 235 1.0 7.0 0.01 0.35 0.06 95 1012.2
20260510130457 52 208 1.0 5.0 0.01 0.35 0.06 95 1012.2
20260510125952 52 242 2.0 6.0 0.01 0.35 0.06 96 1012.2
20260510125444 52 205 2.0 7.0 0.01 0.35 0.06 95 1012.2
20260510124939 52 253 1.0 7.0 0.01 0.35 0.06 96 1012.3
20260510124432 52 257 1.0 6.0 0.01 0.35 0.06 96 1012.3
20260510123926 51 240 1.0 6.0 0.01 0.35 0.06 96 1012.1
20260510123420 51 218 1.0 7.0 0.01 0.35 0.06 96 1012.2
20260510122914 51 220 2.0 6.0 0.01 0.35 0.06 96 1012.3
20260510122633 51 204 2.0 7.0 0.00 0.34 0.05 96 1012.3
20260510122128 51 238 3.0 8.0 0.00 0.34 0.05 96 1012.2
20260510121356 51 223 2.0 9.0 0.00 0.34 0.05 96 1012.0
20260510120850 51 252 2.0 8.0 0.00 0.34 0.05 96 1012.1
20260510120345 51 258 3.0 7.0 0.00 0.34 0.05 96 1012.1
20260510115840 51 200 3.0 9.0 0.00 0.34 0.05 96 1012.0
20260510115557 51 221 2.0 9.0 0.00 0.34 0.05 96 1011.9
20260510115048 51 202 1.0 8.0 0.00 0.34 0.05 96 1011.8
20260510114322 50 233 2.0 8.0 0.00 0.34 0.05 96 1011.5
20260510113821 50 190 2.0 9.0 0.00 0.34 0.05 96 1011.6
20260510113319 50 235 2.0 9.0 0.00 0.34 0.05 96 1011.6
20260510112821 50 238 1.0 8.0 0.00 0.34 0.05 96 1011.7
20260510112316 50 219 2.0 8.0 0.00 0.34 0.05 96 1011.7
20260510111815 49 223 1.0 4.0 0.00 0.34 0.05 96 1011.2
20260510111250 49 214 1.0 5.0 0.00 0.34 0.05 96 1011.1
20260510110956 49 213 2.0 6.0 0.00 0.34 0.05 96 1011.0
20260510110229 49 224 2.0 6.0 0.00 0.34 0.05 96 1011.1
20260510105725 49 218 2.0 7.0 0.00 0.34 0.05 96 1011.2
20260510105223 49 218 2.0 7.0 0.01 0.34 0.05 96 1011.2
20260510104715 49 226 1.0 6.0 0.01 0.34 0.05 96 1011.2
20260510104702 49 250 0.0 5.0 0.01 0.34 0.05 96 1011.2
20260510103157 49 199 0.0 4.0 0.01 0.34 0.05 96 1011.1
20260510102652 49 198 1.0 4.0 0.01 0.34 0.05 96 1011.3
20260510102145 49 207 1.0 6.0 0.01 0.34 0.05 96 1010.9
20260510101640 49 163 1.0 6.0 0.01 0.34 0.05 96 1010.6
20260510101134 49 161 1.0 5.0 0.01 0.34 0.05 96 1010.8
20260510100629 49 157 1.0 5.0 0.01 0.34 0.05 96 1011.2
20260510100122 49 155 1.0 5.0 0.01 0.34 0.05 96 1011.2
20260510095616 49 148 1.0 4.0 0.00 0.33 0.04 96 1010.8
20260510095330 49 206 0.0 4.0 0.00 0.33 0.04 96 1011.0
20260510094604 49 212 0.0 3.0 0.00 0.33 0.04 96 1011.0
20260510094057 49 212 0.0 3.0 0.00 0.33 0.04 96 1010.9
20260510093551 49 212 0.0 3.0 0.00 0.33 0.04 96 1010.9
20260510093048 49 212 0.0 2.0 0.00 0.33 0.04 96 1010.9
20260510092759 49 212 0.0 2.0 0.00 0.33 0.04 96 1010.9
20260510092033 49 216 0.0 3.0 0.00 0.33 0.04 96 1010.8
20260510091527 49 216 0.0 3.0 0.00 0.33 0.04 96 1010.8
20260510091022 49 216 1.0 5.0 0.00 0.33 0.04 96 1010.9
20260510090516 49 215 1.0 5.0 0.00 0.33 0.04 96 1011.0
20260510090009 49 224 0.0 4.0 0.00 0.33 0.04 96 1010.9
20260510085953 49 225 0.0 3.0 0.01 0.33 0.04 96 1010.8
20260510085224 49 225 0.0 4.0 0.01 0.33 0.04 96 1010.9
20260510084452 49 225 0.0 4.0 0.01 0.33 0.04 96 1010.7
20260510083945 49 224 0.0 0.0 0.01 0.33 0.04 96 1010.5
20260510083440 49 224 0.0 4.0 0.01 0.33 0.04 96 1010.4
20260510082934 49 224 1.0 4.0 0.01 0.33 0.04 96 1010.7
20260510082428 49 217 1.0 6.0 0.01 0.33 0.04 96 1010.9
20260510081922 49 216 1.0 6.0 0.01 0.33 0.04 96 1010.9
20260510081415 49 199 0.0 4.0 0.01 0.33 0.04 95 1010.9
20260510080909 49 180 0.0 3.0 0.01 0.33 0.04 95 1010.7
20260510080403 49 191 0.0 1.0 0.01 0.33 0.04 96 1010.7
20260510075859 49 191 0.0 2.0 0.00 0.32 0.04 96 1010.8
20260510075616 49 190 0.0 5.0 0.00 0.32 0.03 95 1010.9
20260510074845 49 191 0.0 5.0 0.00 0.32 0.03 95 1010.7
20260510074339 49 184 0.0 2.0 0.01 0.32 0.03 95 1010.8
20260510073834 49 183 0.0 3.0 0.01 0.32 0.03 95 1010.4
20260510073329 49 183 0.0 3.0 0.01 0.32 0.03 95 1010.4
20260510072822 49 184 1.0 5.0 0.01 0.32 0.03 95 1010.5
20260510072317 49 183 1.0 5.0 0.01 0.32 0.03 95 1010.5
20260510071810 49 190 0.0 4.0 0.01 0.32 0.03 95 1010.5
20260510071305 49 190 0.0 4.0 0.01 0.32 0.03 95 1010.6
20260510070758 49 190 0.0 3.0 0.01 0.32 0.03 95 1010.9
20260510070253 49 190 0.0 2.0 0.01 0.32 0.03 95 1010.9
20260510070007 49 190 0.0 2.0 0.01 0.32 0.03 95 1010.9
20260510065239 49 190 0.0 2.0 0.01 0.32 0.03 95 1011.1
20260510064733 49 190 0.0 4.0 0.00 0.31 0.02 95 1011.2
20260510064227 49 190 0.0 4.0 0.00 0.31 0.02 95 1011.2
20260510063721 49 182 0.0 3.0 0.01 0.31 0.02 95 1011.2
20260510063215 49 182 1.0 4.0 0.01 0.31 0.02 95 1011.3
20260510062709 49 181 1.0 5.0 0.01 0.31 0.02 95 1011.3
20260510062203 49 180 1.0 5.0 0.01 0.31 0.02 95 1011.3
20260510061913 49 182 0.0 3.0 0.01 0.31 0.02 95 1011.4
20260510061153 49 182 0.0 1.0 0.01 0.31 0.02 95 1011.4
20260510060646 49 182 0.0 0.0 0.01 0.31 0.02 95 1011.4
20260510060140 49 182 0.0 1.0 0.01 0.31 0.02 95 1011.4
20260510055633 49 182 0.0 1.0 0.01 0.31 0.02 95 1011.4
20260510055127 49 182 1.0 5.0 0.01 0.31 0.02 95 1011.5
20260510054621 49 182 1.0 5.0 0.01 0.31 0.02 95 1011.5
20260510054115 49 177 1.0 5.0 0.01 0.31 0.02 95 1011.7
20260510053609 49 173 2.0 7.0 0.00 0.30 0.01 95 1011.8
20260510053103 49 153 2.0 7.0 0.00 0.30 0.01 95 1011.8
20260510052559 49 175 1.0 9.0 0.00 0.30 0.01 95 1011.9
20260510052052 49 175 2.0 9.0 0.01 0.30 0.01 95 1011.9
20260510051546 49 150 3.0 7.0 0.01 0.30 0.01 95 1011.8
20260510051040 49 161 3.0 8.0 0.01 0.30 0.01 95 1011.8
20260510050539 49 179 3.0 8.0 0.01 0.30 0.01 95 1011.7
20260510050039 50 177 3.0 7.0 0.01 0.30 0.01 96 1011.6
20260510045538 49 161 3.0 8.0 0.01 0.30 0.01 96 1011.5
20260510045037 49 182 3.0 8.0 0.01 0.30 0.01 96 1011.6
20260510044537 49 186 3.0 11.0 0.01 0.30 0.01 95 1011.7
20260510044038 49 182 3.0 11.0 0.01 0.30 0.01 95 1011.9
20260510043536 50 184 2.0 8.0 0.01 0.30 0.01 95 1011.9
20260510043036 50 180 3.0 8.0 0.01 0.30 0.01 95 1011.9
20260510042536 50 194 2.0 8.0 0.01 0.30 0.01 96 1012.0
20260510042306 49 188 1.0 4.0 0.01 0.29 0.00 96 1012.1
20260510041536 49 178 1.0 6.0 0.01 0.29 0.00 96 1012.2
20260510041038 49 176 1.0 7.0 0.01 0.29 0.00 96 1012.1
20260510040538 49 146 1.0 7.0 0.01 0.29 0.00 96 1012.0
20260510040256 49 187 0.0 3.0 0.01 0.29 0.00 95 1012.1
20260510035538 49 188 1.0 5.0 0.01 0.29 0.29 96 1012.2
20260510035257 49 188 1.0 5.0 0.01 0.29 0.29 96 1012.2
20260510034536 49 188 0.0 4.0 0.01 0.29 0.29 96 1012.2
20260510034301 48 188 0.0 4.0 0.01 0.29 0.29 96 1012.3
20260510033538 48 34 0.0 0.0 0.01 0.29 0.29 95 1012.3
20260510033036 48 34 0.0 0.0 0.01 0.29 0.29 95 1012.4
20260510032536 48 33 0.0 0.0 0.01 0.29 0.29 95 1012.4
20260510032036 48 33 0.0 0.0 0.01 0.28 0.28 95 1012.5
20260510031536 48 34 0.0 0.0 0.01 0.28 0.28 95 1012.6
20260510031036 48 34 0.0 0.0 0.01 0.28 0.28 95 1012.5
20260510030758 48 34 0.0 0.0 0.01 0.28 0.28 95 1012.5
20260510030036 48 33 0.0 0.0 0.01 0.28 0.28 95 1012.5
20260510025532 47 33 0.0 0.0 0.01 0.28 0.28 95 1012.6
20260510025032 47 33 0.0 0.0 0.01 0.28 0.28 95 1012.6
20260510024749 47 34 0.0 0.0 0.01 0.28 0.28 95 1012.6
20260510024032 47 33 0.0 0.0 0.01 0.28 0.28 95 1012.6
20260510023532 47 33 0.0 0.0 0.01 0.28 0.28 95 1012.5
20260510023032 47 33 0.0 0.0 0.02 0.28 0.28 95 1012.5
20260510022802 47 33 0.0 0.0 0.02 0.28 0.28 95 1012.5
20260510022033 47 34 0.0 0.0 0.01 0.27 0.27 95 1012.5
20260510021751 47 33 0.0 0.0 0.01 0.27 0.27 95 1012.4
20260510021034 47 33 0.0 0.0 0.01 0.27 0.27 95 1012.5
20260510020528 47 33 0.0 0.0 0.01 0.27 0.27 95 1012.7
20260510020032 47 33 0.0 0.0 0.02 0.27 0.27 95 1012.7
20260510015528 47 34 0.0 0.0 0.02 0.27 0.27 95 1012.8
20260510015034 47 34 0.0 0.0 0.02 0.27 0.27 95 1012.7
20260510014749 47 33 0.0 1.0 0.02 0.27 0.27 95 1012.6
20260510014029 47 33 0.0 1.0 0.02 0.27 0.27 95 1012.7
20260510013528 47 34 0.0 0.0 0.02 0.27 0.27 95 1012.7
20260510013031 47 34 0.0 0.0 0.02 0.26 0.26 95 1012.6
20260510012525 47 34 0.0 0.0 0.02 0.26 0.26 95 1012.4
20260510012034 47 34 0.0 0.0 0.02 0.26 0.26 95 1012.4
20260510011524 47 34 0.0 0.0 0.03 0.26 0.26 95 1012.4
20260510011032 47 34 0.0 0.0 0.03 0.26 0.26 95 1012.4
20260510010524 47 34 0.0 3.0 0.03 0.26 0.26 95 1012.4
20260510010029 47 34 0.0 3.0 0.02 0.25 0.26 95 1012.4
20260510005524 47 34 0.0 0.0 0.03 0.25 0.25 95 1012.4
20260510005026 47 34 0.0 0.0 0.03 0.25 0.25 95 1012.5
20260510004524 47 34 0.0 0.0 0.03 0.25 0.25 95 1012.4
20260510004035 47 34 0.0 0.0 0.03 0.25 0.25 95 1012.3
20260510003520 47 34 0.0 0.0 0.02 0.24 0.24 95 1012.2
20260510003247 46 34 0.0 0.0 0.02 0.24 0.24 95 1012.4
20260510002518 46 33 0.0 0.0 0.03 0.24 0.24 95 1012.4
20260510002033 46 33 0.0 1.0 0.02 0.23 0.23 95 1012.3
20260510001235 46 33 0.0 0.0 0.02 0.23 0.23 94 1012.5
20260510000442 46 33 0.0 2.0 0.02 0.23 0.23 94 1012.5
20260509235941 46 33 0.0 4.0 0.02 0.23 0.23 94 1012.4
20260509235440 46 33 0.0 1.0 0.02 0.22 0.23 94 1012.4
20260509234932 46 64 0.0 1.0 0.02 0.22 0.22 94 1012.4
20260509234430 46 65 0.0 2.0 0.02 0.22 0.22 94 1012.3
20260509233928 46 65 1.0 3.0 0.02 0.22 0.22 94 1012.3
20260509233426 46 65 0.0 3.0 0.02 0.22 0.22 94 1012.2
20260509233146 46 65 1.0 5.0 0.02 0.22 0.22 94 1012.2
20260509232650 46 63 1.0 5.0 0.02 0.21 0.21 94 1012.2
20260509231924 46 68 1.0 4.0 0.02 0.21 0.21 94 1012.3
20260509231423 45 67 1.0 6.0 0.02 0.21 0.21 94 1012.3
20260509230920 45 95 3.0 7.0 0.02 0.21 0.21 94 1012.3
20260509230644 45 86 3.0 9.0 0.02 0.21 0.21 94 1012.4
20260509225917 45 88 3.0 9.0 0.02 0.21 0.21 94 1012.5
20260509225411 45 94 3.0 8.0 0.01 0.20 0.20 94 1012.5
20260509224905 45 127 4.0 8.0 0.02 0.20 0.20 94 1012.5
20260509224359 45 69 3.0 9.0 0.02 0.20 0.20 94 1012.5
20260509223853 45 100 3.0 9.0 0.02 0.20 0.20 94 1012.5
20260509223346 45 58 3.0 8.0 0.02 0.20 0.20 94 1012.6
20260509223100 45 99 4.0 8.0 0.02 0.20 0.20 94 1012.5
20260509222333 45 68 3.0 8.0 0.01 0.19 0.19 94 1012.6
20260509221827 45 93 2.0 8.0 0.01 0.19 0.19 94 1012.6
20260509221322 45 80 2.0 7.0 0.01 0.19 0.19 94 1012.7
20260509220815 45 89 2.0 7.0 0.01 0.19 0.19 94 1012.9
20260509220309 45 90 2.0 7.0 0.01 0.19 0.19 94 1012.9
20260509215804 45 90 2.0 7.0 0.02 0.19 0.19 93 1013.1
20260509215257 46 82 3.0 7.0 0.02 0.19 0.19 93 1013.1
20260509214753 45 90 3.0 6.0 0.01 0.18 0.18 93 1013.2
20260509214245 46 71 2.0 8.0 0.01 0.18 0.18 93 1013.4
20260509213740 46 84 1.0 8.0 0.01 0.18 0.18 93 1013.6
20260509213721 46 89 1.0 6.0 0.01 0.18 0.18 93 1013.7
20260509212734 46 89 2.0 6.0 0.02 0.18 0.18 93 1013.6
20260509212717 46 87 2.0 7.0 0.02 0.18 0.18 93 1013.6
20260509211951 46 82 2.0 7.0 0.02 0.18 0.18 93 1013.5
20260509211227 46 63 1.0 4.0 0.02 0.18 0.18 93 1013.5
20260509210728 46 77 2.0 6.0 0.03 0.18 0.18 93 1013.6
20260509210228 46 92 3.0 6.0 0.03 0.18 0.18 93 1013.6
20260509205727 46 90 2.0 6.0 0.02 0.17 0.17 93 1013.8
20260509205227 46 97 1.0 6.0 0.03 0.17 0.17 93 1013.6
20260509204928 46 67 2.0 7.0 0.03 0.17 0.17 93 1012.9
20260509204813 46 90 2.0 7.0 0.03 0.17 0.17 93 1013.2
20260509203722 46 44 0.0 4.0 0.04 0.17 0.17 93 1013.5
20260509203223 46 43 1.0 8.0 0.03 0.16 0.17 93 1013.7
20260509202720 46 77 2.0 8.0 0.03 0.16 0.16 92 1013.2
20260509202220 46 36 2.0 6.0 0.04 0.16 0.16 93 1012.9
20260509201718 46 66 2.0 6.0 0.04 0.16 0.16 93 1012.9
20260509201218 46 65 1.0 4.0 0.05 0.16 0.16 93 1013.3
20260509200718 46 66 1.0 4.0 0.04 0.15 0.15 92 1013.8
20260509200440 46 92 0.0 2.0 0.05 0.15 0.15 92 1014.2
20260509195718 46 93 1.0 4.0 0.05 0.15 0.15 92 1014.4
20260509195211 46 93 1.0 6.0 0.05 0.14 0.14 92 1014.2
20260509194704 45 94 1.0 6.0 0.05 0.14 0.14 92 1014.1
20260509194158 46 170 1.0 6.0 0.06 0.14 0.14 92 1014.2
20260509193652 45 169 0.0 5.0 0.05 0.13 0.13 92 1014.4
20260509193146 45 169 1.0 5.0 0.06 0.13 0.13 91 1014.4
20260509192906 46 169 0.0 4.0 0.06 0.13 0.13 91 1014.2
20260509192136 46 169 0.0 4.0 0.06 0.12 0.12 92 1014.3
20260509191829 46 169 1.0 5.0 0.06 0.11 0.11 91 1014.3
20260509191715 46 169 1.0 5.0 0.06 0.12 0.12 91 1014.3
20260509190812 46 169 1.0 6.0 0.06 0.10 0.10 91 1014.5
20260509190659 46 169 1.0 4.0 0.06 0.11 0.11 91 1014.3
20260509185604 46 169 2.0 7.0 0.07 0.10 0.10 91 1014.6
20260509185059 46 169 2.0 7.0 0.06 0.09 0.09 91 1014.7
20260509184552 46 173 2.0 6.0 0.06 0.09 0.09 91 1014.8
20260509184046 46 186 2.0 4.0 0.06 0.08 0.08 90 1014.8
20260509183758 46 185 3.0 8.0 0.06 0.08 0.08 90 1014.6
20260509183035 46 187 2.0 8.0 0.06 0.07 0.07 90 1014.7
20260509182531 46 150 2.0 7.0 0.06 0.07 0.07 90 1014.6
20260509182022 46 152 3.0 7.0 0.05 0.06 0.06 90 1014.7
20260509181516 46 177 3.0 7.0 0.05 0.05 0.05 90 1014.8
20260509181012 47 176 3.0 7.0 0.05 0.05 0.05 90 1014.9
20260509180504 47 186 3.0 7.0 0.04 0.04 0.04 90 1014.9
20260509175959 47 185 2.0 6.0 0.04 0.04 0.04 89 1014.8
20260509175452 47 172 1.0 5.0 0.03 0.03 0.03 89 1014.6
20260509174947 47 171 1.0 5.0 0.03 0.03 0.03 89 1014.6
20260509174440 47 171 1.0 6.0 0.03 0.03 0.03 88 1014.6
20260509174154 47 171 1.0 6.0 0.02 0.02 0.02 88 1014.6
20260509173430 47 200 2.0 7.0 0.02 0.02 0.02 87 1014.7
20260509172923 47 201 3.0 7.0 0.01 0.01 0.01 86 1014.6
20260509172638 48 155 2.0 7.0 0.01 0.01 0.01 86 1014.7
20260509171911 48 157 1.0 6.0 0.01 0.01 0.01 85 1014.6
20260509171404 48 161 1.0 6.0 0.00 0.00 0.00 85 1014.6
20260509170859 49 160 1.0 4.0 0.00 0.00 0.00 84 1014.6
20260509170353 49 159 1.0 6.0 0.00 0.00 0.00 83 1014.6
20260509165847 49 159 2.0 6.0 0.00 0.00 0.00 81 1014.7
20260509165557 50 215 2.0 6.0 0.00 0.00 0.00 79 1014.7
20260509164836 50 193 2.0 6.0 0.00 0.00 0.00 77 1014.7
20260509164328 50 196 2.0 7.0 0.00 0.00 0.00 75 1014.7
20260509163823 51 211 2.0 7.0 0.00 0.00 0.00 72 1014.8
20260509163316 51 238 1.0 5.0 0.00 0.00 0.00 72 1014.7
20260509162811 51 238 2.0 12.0 0.00 0.00 0.00 69 1014.8
20260509162307 51 200 4.0 12.0 0.00 0.00 0.00 69 1014.8
20260509162015 51 190 4.0 8.0 0.00 0.00 0.00 70 1014.8
20260509161511 51 184 3.0 8.0 0.00 0.00 0.00 69 1014.9
20260509160747 51 142 2.0 7.0 0.00 0.00 0.00 70 1014.8
20260509160241 51 188 2.0 8.0 0.00 0.00 0.00 70 1014.8
20260509155734 51 168 2.0 9.0 0.00 0.00 0.00 69 1014.8
20260509155228 51 165 2.0 7.0 0.00 0.00 0.00 70 1014.9
20260509154722 51 194 1.0 5.0 0.00 0.00 0.00 70 1014.8
20260509154216 51 198 1.0 7.0 0.00 0.00 0.00 68 1014.8
20260509153711 51 199 2.0 7.0 0.00 0.00 0.00 70 1014.8
20260509153205 51 188 3.0 9.0 0.00 0.00 0.00 71 1014.9
20260509152658 51 186 3.0 9.0 0.00 0.00 0.00 69 1014.9
20260509152418 51 144 3.0 9.0 0.00 0.00 0.00 69 1014.8
20260509151646 52 180 2.0 8.0 0.00 0.00 0.00 67 1014.8
20260509151140 52 192 3.0 7.0 0.00 0.00 0.00 64 1014.6
20260509150634 52 167 4.0 8.0 0.00 0.00 0.00 61 1014.5
20260509150128 52 173 3.0 8.0 0.00 0.00 0.00 58 1014.4
20260509145622 53 184 3.0 7.0 0.00 0.00 0.00 59 1014.2
20260509145338 53 190 2.0 7.0 0.00 0.00 0.00 57 1014.2